sat.trackr.live / text

‹ back to catalog

STARLINK-33918

NORAD 63796 · 2025-091X

PAYLOAD ACTIVE UNKNOWN

§ Identity

Operator
Country
US
Launch date
2025-05-02
Launch site
AFETR
Launch vehicle
Mass (kg)
RCS (m²)

Purposes: comms

External: N2YO · Heavens-Above · Gunter

§ Orbital elements

Epoch: 2026-09-20T15:07:39.342144Z

Period
94.27 min
Inclination
43.0024°
Eccentricity
0.0001320
Mean motion
15.27585896 rev/d
Perigee alt
482.1 km
Apogee alt
483.9 km
Semi-major
6,861.2 km
B*
4.2470e-4
RAAN
31.7916°
Arg perigee
266.6418°
Mean anomaly
93.4282°
Rev number
7,876

§ Raw data

STARLINK-339181 63796U 25091X   26263.63031646  .00011445  00000+0  42470-3 0  99902 63796  43.0024  31.7916 0001320 266.6418  93.4282 15.27585896 78764

JSON: /api/v1/satellites/63796 · /tle

For live sub-satellite position, see the globe view (requires WebGL).

§ Visibility from observer

Set your observer location to see the next 7 days of passes ≥ 10°. The values pass through the URL so the page stays shareable.

No JS? Fill the form by hand. The geolocation button needs JavaScript.